This is the latest recevied weather packets stored in our database for station/object DC5DM-13. If no packets are shown the sender has not sent any weather packets the latest 10 day(s).
| Time | Temp. | Humidity | Pressure | Rain* | Wind** | Luminosity | Snow |
|---|---|---|---|---|---|---|---|
| 1777386030 | 20° C | 37% | 1020.6 hPa | 0 mm | - | - | - |
| 1777385461 | 19.44° C | 35% | 1020.5 hPa | 0 mm | - | - | - |
| 1777384829 | 20.56° C | 35% | 1020.5 hPa | 0 mm | - | - | - |
| 1777384259 | 20° C | 35% | 1020.5 hPa | 0 mm | - | - | - |
| 1777383629 | 20.56° C | 34% | 1020.5 hPa | 0 mm | - | - | - |
| 1777383059 | 21.11° C | 36% | 1020.6 hPa | 0 mm | - | - | - |
| 1777382429 | 20.56° C | 35% | 1020.6 hPa | 0 mm | - | - | - |
| 1777381860 | 20° C | 34% | 1020.6 hPa | 0 mm | - | - | - |
| 1777381230 | 20° C | 36% | 1020.7 hPa | 0 mm | - | - | - |
| 1777380665 | 19.44° C | 36% | 1020.8 hPa | 0 mm | - | - | - |
| 1777380029 | 20° C | 34% | 1020.8 hPa | 0 mm | - | - | - |
| 1777379460 | 20° C | 37% | 1020.8 hPa | 0 mm | - | - | - |
| 1777378823 | 19.44° C | 34% | 1020.9 hPa | 0 mm | - | - | - |
| 1777378254 | 19.44° C | 35% | 1020.9 hPa | 0 mm | - | - | - |
| 1777377680 | 18.89° C | 35% | 1020.9 hPa | 0 mm | - | - | - |
| 1777377046 | 18.89° C | 36% | 1021 hPa | 0 mm | - | - | - |
| 1777376477 | 18.33° C | 40% | 1021 hPa | 0 mm | - | - | - |
| 1777375846 | 19.44° C | 37% | 1021 hPa | 0 mm | - | - | - |
| 1777375278 | 18.89° C | 38% | 1021 hPa | 0 mm | - | - | - |
| 1777374647 | 18.89° C | 36% | 1021 hPa | 0 mm | - | - | - |
| 1777374078 | 18.89° C | 37% | 1021 hPa | 0 mm | - | - | - |
| 1777373446 | 17.78° C | 39% | 1021.1 hPa | 0 mm | - | - | - |
| 1777372877 | 18.33° C | 40% | 1020.9 hPa | 0 mm | - | - | - |
| 1777372246 | 17.78° C | 40% | 1021 hPa | 0 mm | - | - | - |
| 1777371677 | 17.22° C | 41% | 1021 hPa | 0 mm | - | - | - |
* Rain latest hour (hover to see other rain measurements)
** Current wind speed in m/s (hover to see current wind gust speed)